This is the latest recevied weather packets stored in our database for station/object WL7CLI. If no packets are shown the sender has not sent any weather packets the latest 10 day(s).
| Time | Temp. | Humidity | Pressure | Rain* | Wind** | Luminosity | Snow |
|---|---|---|---|---|---|---|---|
| 1778023704 | 14.44° C | 34% | 1010 hPa | 0 mm | - | - | - |
| 1778023099 | 14.44° C | 33% | 1010.3 hPa | 0 mm | - | - | - |
| 1778022972 | 14.44° C | 33% | 1010.2 hPa | 0 mm | - | - | - |
| 1778021904 | 15° C | 32% | 1009.8 hPa | 0 mm | - | - | - |
| 1778021899 | 15° C | 32% | 1010.2 hPa | 0 mm | - | - | - |
| 1778021772 | 15° C | 33% | 1010.2 hPa | 0 mm | - | - | - |
| 1778020699 | 15° C | 31% | 1010.2 hPa | 0 mm | - | - | - |
| 1778020572 | 15° C | 32% | 1010.2 hPa | 0 mm | - | - | - |
| 1778020104 | 15° C | 31% | 1009.8 hPa | 0 mm | - | - | - |
| 1778019498 | 15° C | 32% | 1010 hPa | 0 mm | - | - | - |
| 1778019374 | 15° C | 32% | 1010 hPa | 0 mm | - | - | - |
| 1778018304 | 15° C | 34% | 1009.7 hPa | 0 mm | - | - | - |
| 1778018300 | 15° C | 34% | 1009.9 hPa | 0 mm | - | - | - |
| 1778018175 | 15° C | 33% | 1009.9 hPa | 0 mm | - | - | - |
| 1778017099 | 15.56° C | 31% | 1009.9 hPa | 0 mm | - | - | - |
| 1778016975 | 15.56° C | 34% | 1009.9 hPa | 0 mm | - | - | - |
| 1778016504 | 15.56° C | 32% | 1009.8 hPa | 0 mm | - | - | - |
| 1778015900 | 15.56° C | 31% | 1010 hPa | 0 mm | - | - | - |
| 1778015775 | 15.56° C | 32% | 1010 hPa | 0 mm | - | - | - |
| 1778014704 | 15.56° C | 32% | 1009.8 hPa | 0 mm | - | - | - |
| 1778014699 | 15.56° C | 32% | 1010 hPa | 0 mm | - | - | - |
| 1778014575 | 15.56° C | 32% | 1010.1 hPa | 0 mm | - | - | - |
| 1778013500 | 15.56° C | 33% | 1010.3 hPa | 0 mm | - | - | - |
| 1778013376 | 15.56° C | 33% | 1010.3 hPa | 0 mm | - | - | - |
| 1778012904 | 15.56° C | 33% | 1010.2 hPa | 0 mm | - | - | - |
* Rain latest hour (hover to see other rain measurements)
** Current wind speed in m/s (hover to see current wind gust speed)